Location: Mexico
(19.4000°N, 99.1500°W)
Time: 22:38:46
(UTC-06:00)

ISS - Pass Details

Date: 21 March 2018
Orbit: 403 x 408 km, 51.6° (Epoch: 21 September)

Event Time Altitude Azimuth Distance (km) Brightness Sun altitude
Rises 20:49:00 0° 243° (WSW) 2,354 0.8 -29.2°
Reaches altitude 10° 20:51:23 10° 259° (WSW) 1,495 -0.2 -29.8°
Enters shadow 20:52:29 16° 274° (W) 1,178 -0.7 -30.0°
Exits shadow 21:21:35 -49° 51° (NE) 10,170 3.3 -36.7°
